owner,sensor,date,latitude,longitude,vertical_datum,wind_speed,wind_to_direction,wind_speed_of_gust,qcFlag 
LOOP,urn:ioos:station:wmo:lopl1:1,2019-08-01T00:44:00Z,28.8850,-90.0250,10.0,1.5,100.0,2.1,'11111222,11111222,11111222' 
LOOP,urn:ioos:station:wmo:lopl1:1,2019-08-01T01:44:00Z,28.8850,-90.0250,10.0,1.5,60.0,2.1,'11111222,11111222,11111222' 
LOOP,urn:ioos:station:wmo:lopl1:1,2019-08-01T02:44:00Z,28.8850,-90.0250,10.0,1.0,50.0,2.1,'11111222,11111222,11111222' 
LOOP,urn:ioos:station:wmo:lopl1:1,2019-08-01T03:44:00Z,28.8850,-90.0250,10.0,1.5,-9999.0,2.1,'11111222,11111222,11111222' 
LOOP,urn:ioos:station:wmo:lopl1:1,2019-08-01T04:44:00Z,28.8850,-90.0250,10.0,2.6,170.0,3.1,'11111222,11111222,11111222' 
LOOP,urn:ioos:station:wmo:lopl1:1,2019-08-01T05:44:00Z,28.8850,-90.0250,10.0,2.1,160.0,2.6,'11111222,11111222,11111222' 
LOOP,urn:ioos:station:wmo:lopl1:1,2019-08-01T06:44:00Z,28.8850,-90.0250,10.0,1.0,-9999.0,2.6,'11111222,11111222,11111222' 
LOOP,urn:ioos:station:wmo:lopl1:1,2019-08-01T07:44:00Z,28.8850,-90.0250,10.0,0.0,-9999.0,0.5,'11111222,11111222,11111222' 
LOOP,urn:ioos:station:wmo:lopl1:1,2019-08-01T08:44:00Z,28.8850,-90.0250,10.0,1.0,90.0,1.5,'11111222,11111222,11111222' 
LOOP,urn:ioos:station:wmo:lopl1:1,2019-08-01T09:44:00Z,28.8850,-90.0250,10.0,1.5,100.0,2.1,'11111222,11111222,11111222' 
LOOP,urn:ioos:station:wmo:lopl1:1,2019-08-01T10:44:00Z,28.8850,-90.0250,10.0,3.1,320.0,5.7,'11111222,11111222,11111222' 
LOOP,urn:ioos:station:wmo:lopl1:1,2019-08-01T11:49:00Z,28.8850,-90.0250,10.0,1.5,320.0,2.6,'11111222,11111222,11111222' 
LOOP,urn:ioos:station:wmo:lopl1:1,2019-08-01T13:04:00Z,28.8850,-90.0250,10.0,1.5,20.0,2.6,'11111222,11111222,11111222' 
LOOP,urn:ioos:station:wmo:lopl1:1,2019-08-01T14:04:00Z,28.8850,-90.0250,10.0,2.6,50.0,3.1,'11111222,11111222,11111222' 
LOOP,urn:ioos:station:wmo:lopl1:1,2019-08-01T15:04:00Z,28.8850,-90.0250,10.0,2.1,40.0,3.1,'11111222,11111222,11111222' 
LOOP,urn:ioos:station:wmo:lopl1:1,2019-08-01T16:04:00Z,28.8850,-90.0250,10.0,3.6,40.0,4.6,'11111222,11111222,11111222' 
LOOP,urn:ioos:station:wmo:lopl1:1,2019-08-01T17:04:00Z,28.8850,-90.0250,10.0,3.1,30.0,4.1,'11111222,11111222,11111222' 
LOOP,urn:ioos:station:wmo:lopl1:1,2019-08-01T18:04:00Z,28.8850,-90.0250,10.0,2.6,110.0,4.1,'11111222,11111222,11111222' 
LOOP,urn:ioos:station:wmo:lopl1:1,2019-08-01T19:04:00Z,28.8850,-90.0250,10.0,2.1,130.0,2.6,'11111222,11111222,11111222' 
LOOP,urn:ioos:station:wmo:lopl1:1,2019-08-01T20:04:00Z,28.8850,-90.0250,10.0,3.1,100.0,4.1,'11111222,11111222,11111222' 
LOOP,urn:ioos:station:wmo:lopl1:1,2019-08-01T21:04:00Z,28.8850,-90.0250,10.0,2.6,80.0,3.6,'11111222,11111222,11111222' 
LOOP,urn:ioos:station:wmo:lopl1:1,2019-08-01T22:09:00Z,28.8850,-90.0250,10.0,2.1,170.0,3.1,'11111222,11111222,11111222' 
LOOP,urn:ioos:station:wmo:lopl1:1,2019-08-01T23:09:00Z,28.8850,-90.0250,10.0,2.1,-9999.0,3.1,'11111222,11111222,11111222' 
LOOP,urn:ioos:station:wmo:lopl1:1,2019-08-02T00:09:00Z,28.8850,-90.0250,10.0,1.5,-9999.0,2.6,'11111222,11111222,11111222' 
LOOP,urn:ioos:station:wmo:lopl1:1,2019-08-02T01:09:00Z,28.8850,-90.0250,10.0,1.0,-9999.0,2.1,'11111222,11111222,11111222' 
LOOP,urn:ioos:station:wmo:lopl1:1,2019-08-02T02:09:00Z,28.8850,-90.0250,10.0,2.1,-9999.0,3.1,'11111222,11111222,11111222' 
LOOP,urn:ioos:station:wmo:lopl1:1,2019-08-02T03:09:00Z,28.8850,-90.0250,10.0,1.0,-9999.0,1.5,'11111222,11111222,11111222' 
LOOP,urn:ioos:station:wmo:lopl1:1,2019-08-02T04:09:00Z,28.8850,-90.0250,10.0,1.5,-9999.0,2.1,'11111222,11111222,11111222' 
LOOP,urn:ioos:station:wmo:lopl1:1,2019-08-02T05:09:00Z,28.8850,-90.0250,10.0,1.5,-9999.0,2.6,'11111222,11111222,11111222' 
LOOP,urn:ioos:station:wmo:lopl1:1,2019-08-02T06:09:00Z,28.8850,-90.0250,10.0,2.1,280.0,2.6,'11111222,11111222,11111222' 
LOOP,urn:ioos:station:wmo:lopl1:1,2019-08-02T07:14:00Z,28.8850,-90.0250,10.0,1.5,-9999.0,2.6,'11111222,11111222,11111222' 
LOOP,urn:ioos:station:wmo:lopl1:1,2019-08-02T08:14:00Z,28.8850,-90.0250,10.0,2.6,300.0,3.1,'11111222,11111222,11111222' 
LOOP,urn:ioos:station:wmo:lopl1:1,2019-08-02T09:14:00Z,28.8850,-90.0250,10.0,0.5,290.0,1.5,'11111222,11111222,11111222' 
LOOP,urn:ioos:station:wmo:lopl1:1,2019-08-02T10:14:00Z,28.8850,-90.0250,10.0,0.5,10.0,1.5,'11111222,11111222,11111222' 
LOOP,urn:ioos:station:wmo:lopl1:1,2019-08-02T11:14:00Z,28.8850,-90.0250,10.0,1.0,20.0,2.1,'11111222,11111222,11111222' 
LOOP,urn:ioos:station:wmo:lopl1:1,2019-08-02T12:14:00Z,28.8850,-90.0250,10.0,3.1,320.0,4.1,'11111222,11111222,11111222' 
LOOP,urn:ioos:station:wmo:lopl1:1,2019-08-02T13:14:00Z,28.8850,-90.0250,10.0,1.5,350.0,2.1,'11111222,11111222,11111222' 
LOOP,urn:ioos:station:wmo:lopl1:1,2019-08-02T14:14:00Z,28.8850,-90.0250,10.0,3.1,330.0,4.1,'11111222,11111222,11111222' 
LOOP,urn:ioos:station:wmo:lopl1:1,2019-08-02T15:14:00Z,28.8850,-90.0250,10.0,3.6,310.0,5.1,'11111222,11111222,11111222' 
LOOP,urn:ioos:station:wmo:lopl1:1,2019-08-02T16:14:00Z,28.8850,-90.0250,10.0,2.6,310.0,3.6,'11111222,11111222,11111222' 
LOOP,urn:ioos:station:wmo:lopl1:1,2019-08-02T17:14:00Z,28.8850,-90.0250,10.0,2.1,310.0,2.6,'11111222,11111222,11111222' 
LOOP,urn:ioos:station:wmo:lopl1:1,2019-08-02T18:19:00Z,28.8850,-90.0250,10.0,1.5,330.0,3.1,'11111222,11111222,11111222' 
LOOP,urn:ioos:station:wmo:lopl1:1,2019-08-02T19:19:00Z,28.8850,-90.0250,10.0,1.5,310.0,2.6,'11111222,11111222,11111222' 
LOOP,urn:ioos:station:wmo:lopl1:1,2019-08-02T20:19:00Z,28.8850,-90.0250,10.0,1.5,290.0,3.6,'11111222,11111222,11111222' 
LOOP,urn:ioos:station:wmo:lopl1:1,2019-08-02T21:19:00Z,28.8850,-90.0250,10.0,0.0,-9999.0,1.0,'11111222,11111222,11111222' 
LOOP,urn:ioos:station:wmo:lopl1:1,2019-08-02T22:19:00Z,28.8850,-90.0250,10.0,2.1,-9999.0,2.6,'11111222,11111222,11111222' 
LOOP,urn:ioos:station:wmo:lopl1:1,2019-08-02T23:19:00Z,28.8850,-90.0250,10.0,1.0,300.0,2.1,'11111222,11111222,11111222' 
LOOP,urn:ioos:station:wmo:lopl1:1,2019-08-03T00:19:00Z,28.8850,-90.0250,10.0,1.5,290.0,2.1,'11111222,11111222,11111222' 
LOOP,urn:ioos:station:wmo:lopl1:1,2019-08-03T01:19:00Z,28.8850,-90.0250,10.0,1.5,-9999.0,2.1,'11111222,11111222,11111222' 
LOOP,urn:ioos:station:wmo:lopl1:1,2019-08-03T02:19:00Z,28.8850,-90.0250,10.0,1.0,280.0,2.1,'11111222,11111222,11111222' 
LOOP,urn:ioos:station:wmo:lopl1:1,2019-08-03T03:19:00Z,28.8850,-90.0250,10.0,0.0,-9999.0,1.0,'11111222,11111222,11111222' 
LOOP,urn:ioos:station:wmo:lopl1:1,2019-08-03T04:19:00Z,28.8850,-90.0250,10.0,1.5,160.0,2.6,'11111222,11111222,11111222' 
LOOP,urn:ioos:station:wmo:lopl1:1,2019-08-03T05:19:00Z,28.8850,-90.0250,10.0,2.1,170.0,3.1,'11111222,11111222,11111222' 
LOOP,urn:ioos:station:wmo:lopl1:1,2019-08-03T06:24:00Z,28.8850,-90.0250,10.0,2.1,180.0,3.1,'11111222,11111222,11111222' 
LOOP,urn:ioos:station:wmo:lopl1:1,2019-08-03T07:24:00Z,28.8850,-90.0250,10.0,2.6,-9999.0,3.6,'11111222,11111222,11111222' 
LOOP,urn:ioos:station:wmo:lopl1:1,2019-08-03T08:24:00Z,28.8850,-90.0250,10.0,2.1,-9999.0,2.1,'11111222,11111222,11111222' 
LOOP,urn:ioos:station:wmo:lopl1:1,2019-08-03T09:24:00Z,28.8850,-90.0250,10.0,2.6,-9999.0,3.6,'11111222,11111222,11111222' 
LOOP,urn:ioos:station:wmo:lopl1:1,2019-08-03T10:24:00Z,28.8850,-90.0250,10.0,3.1,-9999.0,4.1,'11111222,11111222,11111222' 
LOOP,urn:ioos:station:wmo:lopl1:1,2019-08-03T11:24:00Z,28.8850,-90.0250,10.0,2.6,-9999.0,3.6,'11111222,11111222,11111222' 
LOOP,urn:ioos:station:wmo:lopl1:1,2019-08-03T12:24:00Z,28.8850,-90.0250,10.0,2.6,-9999.0,3.6,'11111222,11111222,11111222' 
LOOP,urn:ioos:station:wmo:lopl1:1,2019-08-03T13:24:00Z,28.8850,-90.0250,10.0,3.1,-9999.0,4.1,'11111222,11111222,11111222' 
LOOP,urn:ioos:station:wmo:lopl1:1,2019-08-03T14:29:00Z,28.8850,-90.0250,10.0,2.6,-9999.0,4.1,'11111222,11111222,11111222' 
LOOP,urn:ioos:station:wmo:lopl1:1,2019-08-03T15:29:00Z,28.8850,-90.0250,10.0,3.1,-9999.0,4.1,'11111222,11111222,11111222' 
LOOP,urn:ioos:station:wmo:lopl1:1,2019-08-03T16:29:00Z,28.8850,-90.0250,10.0,1.5,280.0,2.6,'11111222,11111222,11111222' 
LOOP,urn:ioos:station:wmo:lopl1:1,2019-08-03T17:29:00Z,28.8850,-90.0250,10.0,2.6,-9999.0,3.1,'11111222,11111222,11111222' 
LOOP,urn:ioos:station:wmo:lopl1:1,2019-08-03T18:29:00Z,28.8850,-90.0250,10.0,2.1,-9999.0,4.1,'11111222,11111222,11111222' 
LOOP,urn:ioos:station:wmo:lopl1:1,2019-08-03T19:29:00Z,28.8850,-90.0250,10.0,2.6,-9999.0,4.6,'11111222,11111222,11111222' 
LOOP,urn:ioos:station:wmo:lopl1:1,2019-08-03T20:29:00Z,28.8850,-90.0250,10.0,4.1,310.0,6.2,'11111222,11111222,11111222' 
LOOP,urn:ioos:station:wmo:lopl1:1,2019-08-03T21:29:00Z,28.8850,-90.0250,10.0,4.1,280.0,7.2,'11111222,11111222,11111222' 
LOOP,urn:ioos:station:wmo:lopl1:1,2019-08-03T22:29:00Z,28.8850,-90.0250,10.0,1.5,280.0,2.6,'11111222,11111222,11111222' 
LOOP,urn:ioos:station:wmo:lopl1:1,2019-08-03T23:29:00Z,28.8850,-90.0250,10.0,3.6,-9999.0,4.6,'11111222,11111222,11111222' 
LOOP,urn:ioos:station:wmo:lopl1:1,2019-08-04T00:29:00Z,28.8850,-90.0250,10.0,3.1,-9999.0,4.6,'11111222,11111222,11111222' 
LOOP,urn:ioos:station:wmo:lopl1:1,2019-08-04T01:29:00Z,28.8850,-90.0250,10.0,3.1,-9999.0,4.1,'11111222,11111222,11111222' 
LOOP,urn:ioos:station:wmo:lopl1:1,2019-08-04T02:34:00Z,28.8850,-90.0250,10.0,3.1,-9999.0,4.6,'11111222,11111222,11111222' 
LOOP,urn:ioos:station:wmo:lopl1:1,2019-08-04T03:34:00Z,28.8850,-90.0250,10.0,3.6,-9999.0,4.6,'11111222,11111222,11111222' 
LOOP,urn:ioos:station:wmo:lopl1:1,2019-08-04T04:34:00Z,28.8850,-90.0250,10.0,3.1,-9999.0,4.1,'11111222,11111222,11111222' 
LOOP,urn:ioos:station:wmo:lopl1:1,2019-08-04T05:34:00Z,28.8850,-90.0250,10.0,3.6,-9999.0,5.1,'11111222,11111222,11111222' 
LOOP,urn:ioos:station:wmo:lopl1:1,2019-08-04T06:34:00Z,28.8850,-90.0250,10.0,6.7,-9999.0,9.8,'11111222,11111222,11111222' 
LOOP,urn:ioos:station:wmo:lopl1:1,2019-08-04T07:34:00Z,28.8850,-90.0250,10.0,3.1,-9999.0,4.1,'11111222,11111222,11111222' 
LOOP,urn:ioos:station:wmo:lopl1:1,2019-08-04T08:34:00Z,28.8850,-90.0250,10.0,6.2,-9999.0,7.2,'11111222,11111222,11111222' 
LOOP,urn:ioos:station:wmo:lopl1:1,2019-08-04T09:34:00Z,28.8850,-90.0250,10.0,4.6,280.0,7.2,'11111222,11111222,11111222' 
LOOP,urn:ioos:station:wmo:lopl1:1,2019-08-04T10:34:00Z,28.8850,-90.0250,10.0,3.1,-9999.0,4.6,'11111222,11111222,11111222' 
LOOP,urn:ioos:station:wmo:lopl1:1,2019-08-04T11:54:00Z,28.8850,-90.0250,10.0,3.1,280.0,5.7,'11111222,11111222,11111222' 
LOOP,urn:ioos:station:wmo:lopl1:1,2019-08-04T12:54:00Z,28.8850,-90.0250,10.0,4.1,310.0,5.7,'11111222,11111222,11111222' 
LOOP,urn:ioos:station:wmo:lopl1:1,2019-08-04T13:54:00Z,28.8850,-90.0250,10.0,2.1,300.0,3.1,'11111222,11111222,11111222' 
LOOP,urn:ioos:station:wmo:lopl1:1,2019-08-04T15:09:00Z,28.8850,-90.0250,10.0,3.6,280.0,7.2,'11111222,11111222,11111222' 
LOOP,urn:ioos:station:wmo:lopl1:1,2019-08-04T16:09:00Z,28.8850,-90.0250,10.0,3.1,320.0,5.1,'11111222,11111222,11111222' 
LOOP,urn:ioos:station:wmo:lopl1:1,2019-08-04T17:09:00Z,28.8850,-90.0250,10.0,8.2,-9999.0,10.8,'11111222,11111222,11111222' 
LOOP,urn:ioos:station:wmo:lopl1:1,2019-08-04T18:09:00Z,28.8850,-90.0250,10.0,3.1,-9999.0,4.6,'11111222,11111222,11111222' 
LOOP,urn:ioos:station:wmo:lopl1:1,2019-08-04T19:09:00Z,28.8850,-90.0250,10.0,5.7,-9999.0,6.7,'11111222,11111222,11111222' 
LOOP,urn:ioos:station:wmo:lopl1:1,2019-08-04T20:09:00Z,28.8850,-90.0250,10.0,3.6,-9999.0,4.6,'11111222,11111222,11111222' 
LOOP,urn:ioos:station:wmo:lopl1:1,2019-08-04T21:09:00Z,28.8850,-90.0250,10.0,5.1,-9999.0,6.7,'11111222,11111222,11111222' 
LOOP,urn:ioos:station:wmo:lopl1:1,2019-08-04T22:09:00Z,28.8850,-90.0250,10.0,5.1,-9999.0,6.2,'11111222,11111222,11111222' 
LOOP,urn:ioos:station:wmo:lopl1:1,2019-08-04T23:09:00Z,28.8850,-90.0250,10.0,5.7,-9999.0,8.2,'11111222,11111222,11111222' 
LOOP,urn:ioos:station:wmo:lopl1:1,2019-08-05T00:14:00Z,28.8850,-90.0250,10.0,3.6,270.0,6.7,'11111222,11111222,11111222' 
LOOP,urn:ioos:station:wmo:lopl1:1,2019-08-05T01:14:00Z,28.8850,-90.0250,10.0,3.6,-9999.0,5.1,'11111222,11111222,11111222' 
LOOP,urn:ioos:station:wmo:lopl1:1,2019-08-05T02:14:00Z,28.8850,-90.0250,10.0,3.1,260.0,6.2,'11111222,11111222,11111222' 
LOOP,urn:ioos:station:wmo:lopl1:1,2019-08-05T03:14:00Z,28.8850,-90.0250,10.0,4.1,-9999.0,6.2,'11111222,11111222,11111222' 
LOOP,urn:ioos:station:wmo:lopl1:1,2019-08-05T04:14:00Z,28.8850,-90.0250,10.0,5.1,-9999.0,6.7,'11111222,11111222,11111222' 
LOOP,urn:ioos:station:wmo:lopl1:1,2019-08-05T05:14:00Z,28.8850,-90.0250,10.0,5.1,-9999.0,7.2,'11111222,11111222,11111222' 
LOOP,urn:ioos:station:wmo:lopl1:1,2019-08-05T06:14:00Z,28.8850,-90.0250,10.0,6.2,-9999.0,7.2,'11111222,11111222,11111222' 
LOOP,urn:ioos:station:wmo:lopl1:1,2019-08-05T07:14:00Z,28.8850,-90.0250,10.0,5.1,-9999.0,7.2,'11111222,11111222,11111222' 
LOOP,urn:ioos:station:wmo:lopl1:1,2019-08-05T08:14:00Z,28.8850,-90.0250,10.0,4.6,-9999.0,6.7,'11111222,11111222,11111222' 
LOOP,urn:ioos:station:wmo:lopl1:1,2019-08-05T09:14:00Z,28.8850,-90.0250,10.0,3.1,260.0,6.2,'11111222,11111222,11111222' 
LOOP,urn:ioos:station:wmo:lopl1:1,2019-08-05T10:14:00Z,28.8850,-90.0250,10.0,4.6,-9999.0,6.7,'11111222,11111222,11111222' 
LOOP,urn:ioos:station:wmo:lopl1:1,2019-08-05T11:15:00Z,28.8850,-90.0250,10.0,5.7,-9999.0,6.7,'11111222,11111222,11111222' 
LOOP,urn:ioos:station:wmo:lopl1:1,2019-08-05T12:20:00Z,28.8850,-90.0250,10.0,4.1,-9999.0,7.2,'11111222,11111222,11111222' 
LOOP,urn:ioos:station:wmo:lopl1:1,2019-08-05T13:20:00Z,28.8850,-90.0250,10.0,3.6,270.0,6.2,'11111222,11111222,11111222' 
LOOP,urn:ioos:station:wmo:lopl1:1,2019-08-05T14:20:00Z,28.8850,-90.0250,10.0,3.1,300.0,4.1,'11111222,11111222,11111222' 
LOOP,urn:ioos:station:wmo:lopl1:1,2019-08-05T15:20:00Z,28.8850,-90.0250,10.0,3.6,290.0,5.7,'11111222,11111222,11111222' 
LOOP,urn:ioos:station:wmo:lopl1:1,2019-08-05T16:20:00Z,28.8850,-90.0250,10.0,2.6,300.0,3.6,'11111222,11111222,11111222' 
LOOP,urn:ioos:station:wmo:lopl1:1,2019-08-05T17:20:00Z,28.8850,-90.0250,10.0,6.7,70.0,8.8,'11111222,11111222,11111222' 
LOOP,urn:ioos:station:wmo:lopl1:1,2019-08-05T18:20:00Z,28.8850,-90.0250,10.0,2.6,-9999.0,4.1,'11111222,11111222,11111222' 
LOOP,urn:ioos:station:wmo:lopl1:1,2019-08-05T19:20:00Z,28.8850,-90.0250,10.0,1.0,-9999.0,2.1,'11111222,11111222,11111222' 
LOOP,urn:ioos:station:wmo:lopl1:1,2019-08-05T20:20:00Z,28.8850,-90.0250,10.0,2.1,-9999.0,2.6,'11111222,11111222,11111222' 
LOOP,urn:ioos:station:wmo:lopl1:1,2019-08-05T21:20:00Z,28.8850,-90.0250,10.0,2.6,-9999.0,3.1,'11111222,11111222,11111222' 
LOOP,urn:ioos:station:wmo:lopl1:1,2019-08-05T22:20:00Z,28.8850,-90.0250,10.0,2.6,-9999.0,3.6,'11111222,11111222,11111222' 
LOOP,urn:ioos:station:wmo:lopl1:1,2019-08-05T23:25:00Z,28.8850,-90.0250,10.0,2.6,170.0,3.1,'11111222,11111222,11111222' 
LOOP,urn:ioos:station:wmo:lopl1:1,2019-08-06T00:25:00Z,28.8850,-90.0250,10.0,1.5,290.0,2.6,'11111222,11111222,11111222' 
LOOP,urn:ioos:station:wmo:lopl1:1,2019-08-06T01:25:00Z,28.8850,-90.0250,10.0,2.6,-9999.0,3.1,'11111222,11111222,11111222' 
LOOP,urn:ioos:station:wmo:lopl1:1,2019-08-06T02:40:00Z,28.8850,-90.0250,10.0,2.6,-9999.0,3.1,'11111222,11111222,11111222' 
LOOP,urn:ioos:station:wmo:lopl1:1,2019-08-06T03:40:00Z,28.8850,-90.0250,10.0,3.1,-9999.0,4.1,'11111222,11111222,11111222' 
LOOP,urn:ioos:station:wmo:lopl1:1,2019-08-06T04:55:00Z,28.8850,-90.0250,10.0,3.1,-9999.0,4.6,'11111222,11111222,11111222' 
LOOP,urn:ioos:station:wmo:lopl1:1,2019-08-06T05:55:00Z,28.8850,-90.0250,10.0,5.1,-9999.0,6.2,'11111222,11111222,11111222' 
LOOP,urn:ioos:station:wmo:lopl1:1,2019-08-06T06:55:00Z,28.8850,-90.0250,10.0,7.2,-9999.0,7.7,'11111222,99999999,11111222' 
LOOP,urn:ioos:station:wmo:lopl1:1,2019-08-06T07:55:00Z,28.8850,-90.0250,10.0,5.1,-9999.0,7.7,'11111222,11111222,11111222' 
LOOP,urn:ioos:station:wmo:lopl1:1,2019-08-06T08:55:00Z,28.8850,-90.0250,10.0,3.6,270.0,6.2,'11111222,11111222,11111222' 
LOOP,urn:ioos:station:wmo:lopl1:1,2019-08-06T10:00:00Z,28.8850,-90.0250,10.0,3.6,260.0,6.2,'11111222,11111222,11111222' 
LOOP,urn:ioos:station:wmo:lopl1:1,2019-08-06T11:00:00Z,28.8850,-90.0250,10.0,3.1,260.0,6.2,'11111222,11111222,11111222' 
LOOP,urn:ioos:station:wmo:lopl1:1,2019-08-06T12:00:00Z,28.8850,-90.0250,10.0,4.1,300.0,5.7,'11111222,11111222,11111222' 
LOOP,urn:ioos:station:wmo:lopl1:1,2019-08-06T13:15:00Z,28.8850,-90.0250,10.0,3.1,310.0,4.1,'11111222,11111222,11111222' 
LOOP,urn:ioos:station:wmo:lopl1:1,2019-08-06T14:15:00Z,28.8850,-90.0250,10.0,3.1,310.0,4.6,'11111222,11111222,11111222' 
LOOP,urn:ioos:station:wmo:lopl1:1,2019-08-06T15:15:00Z,28.8850,-90.0250,10.0,5.7,300.0,8.2,'11111222,11111222,11111222' 
LOOP,urn:ioos:station:wmo:lopl1:1,2019-08-06T16:15:00Z,28.8850,-90.0250,10.0,2.6,310.0,3.6,'11111222,11111222,11111222' 
LOOP,urn:ioos:station:wmo:lopl1:1,2019-08-06T17:15:00Z,28.8850,-90.0250,10.0,1.5,330.0,3.1,'11111222,11111222,11111222' 
LOOP,urn:ioos:station:wmo:lopl1:1,2019-08-06T18:15:00Z,28.8850,-90.0250,10.0,2.1,270.0,3.1,'11111222,11111222,11111222' 
LOOP,urn:ioos:station:wmo:lopl1:1,2019-08-06T19:20:00Z,28.8850,-90.0250,10.0,7.7,-9999.0,9.3,'11111222,11111222,11111222' 
LOOP,urn:ioos:station:wmo:lopl1:1,2019-08-06T20:20:00Z,28.8850,-90.0250,10.0,5.7,-9999.0,7.2,'11111222,11111222,11111222' 
LOOP,urn:ioos:station:wmo:lopl1:1,2019-08-06T21:20:00Z,28.8850,-90.0250,10.0,5.1,-9999.0,6.2,'11111222,11111222,11111222' 
LOOP,urn:ioos:station:wmo:lopl1:1,2019-08-06T22:20:00Z,28.8850,-90.0250,10.0,3.1,-9999.0,6.2,'11111222,11111222,11111222' 
LOOP,urn:ioos:station:wmo:lopl1:1,2019-08-06T23:20:00Z,28.8850,-90.0250,10.0,3.1,270.0,5.7,'11111222,11111222,11111222' 
LOOP,urn:ioos:station:wmo:lopl1:1,2019-08-07T00:20:00Z,28.8850,-90.0250,10.0,4.1,270.0,7.7,'11111222,11111222,11111222' 
LOOP,urn:ioos:station:wmo:lopl1:1,2019-08-07T01:20:00Z,28.8850,-90.0250,10.0,3.1,-9999.0,5.7,'11111222,11111222,11111222' 
LOOP,urn:ioos:station:wmo:lopl1:1,2019-08-07T02:20:00Z,28.8850,-90.0250,10.0,3.6,-9999.0,6.7,'11111222,11111222,11111222' 
LOOP,urn:ioos:station:wmo:lopl1:1,2019-08-07T03:20:00Z,28.8850,-90.0250,10.0,3.1,-9999.0,6.2,'11111222,11111222,11111222' 
LOOP,urn:ioos:station:wmo:lopl1:1,2019-08-07T04:20:00Z,28.8850,-90.0250,10.0,5.1,-9999.0,7.7,'11111222,11111222,11111222' 
LOOP,urn:ioos:station:wmo:lopl1:1,2019-08-07T05:20:00Z,28.8850,-90.0250,10.0,4.1,-9999.0,6.7,'11111222,11111222,11111222' 
LOOP,urn:ioos:station:wmo:lopl1:1,2019-08-07T06:25:00Z,28.8850,-90.0250,10.0,4.6,-9999.0,6.7,'11111222,11111222,11111222' 
LOOP,urn:ioos:station:wmo:lopl1:1,2019-08-07T07:25:00Z,28.8850,-90.0250,10.0,3.1,280.0,6.7,'11111222,11111222,11111222' 
LOOP,urn:ioos:station:wmo:lopl1:1,2019-08-07T08:25:00Z,28.8850,-90.0250,10.0,2.6,260.0,4.6,'11111222,11111222,11111222' 
LOOP,urn:ioos:station:wmo:lopl1:1,2019-08-07T09:25:00Z,28.8850,-90.0250,10.0,2.6,280.0,4.1,'11111222,11111222,11111222' 
LOOP,urn:ioos:station:wmo:lopl1:1,2019-08-07T10:25:00Z,28.8850,-90.0250,10.0,2.6,280.0,4.1,'11111222,11111222,11111222' 
LOOP,urn:ioos:station:wmo:lopl1:1,2019-08-07T11:25:00Z,28.8850,-90.0250,10.0,4.1,280.0,6.2,'11111222,11111222,11111222' 
LOOP,urn:ioos:station:wmo:lopl1:1,2019-08-07T12:25:00Z,28.8850,-90.0250,10.0,6.2,-9999.0,8.8,'11111222,11111222,11111222' 
LOOP,urn:ioos:station:wmo:lopl1:1,2019-08-07T13:25:00Z,28.8850,-90.0250,10.0,4.1,-9999.0,7.7,'11111222,11111222,11111222' 
LOOP,urn:ioos:station:wmo:lopl1:1,2019-08-07T14:25:00Z,28.8850,-90.0250,10.0,4.6,-9999.0,6.7,'11111222,11111222,11111222' 
LOOP,urn:ioos:station:wmo:lopl1:1,2019-08-07T15:25:00Z,28.8850,-90.0250,10.0,3.1,280.0,5.1,'11111222,11111222,11111222' 
LOOP,urn:ioos:station:wmo:lopl1:1,2019-08-07T16:25:00Z,28.8850,-90.0250,10.0,2.6,-9999.0,4.6,'11111222,11111222,11111222' 
LOOP,urn:ioos:station:wmo:lopl1:1,2019-08-07T17:25:00Z,28.8850,-90.0250,10.0,5.1,280.0,7.2,'11111222,11111222,11111222' 
LOOP,urn:ioos:station:wmo:lopl1:1,2019-08-07T18:30:00Z,28.8850,-90.0250,10.0,4.1,280.0,6.7,'11111222,11111222,11111222' 
LOOP,urn:ioos:station:wmo:lopl1:1,2019-08-07T19:30:00Z,28.8850,-90.0250,10.0,4.1,300.0,6.2,'11111222,11111222,11111222' 
LOOP,urn:ioos:station:wmo:lopl1:1,2019-08-07T20:30:00Z,28.8850,-90.0250,10.0,4.6,290.0,6.7,'11111222,11111222,11111222' 
LOOP,urn:ioos:station:wmo:lopl1:1,2019-08-07T21:30:00Z,28.8850,-90.0250,10.0,3.6,280.0,5.7,'11111222,11111222,11111222' 
LOOP,urn:ioos:station:wmo:lopl1:1,2019-08-07T22:30:00Z,28.8850,-90.0250,10.0,4.1,290.0,6.2,'11111222,11111222,11111222' 
LOOP,urn:ioos:station:wmo:lopl1:1,2019-08-07T23:45:00Z,28.8850,-90.0250,10.0,3.1,280.0,5.7,'11111222,11111222,11111222' 
LOOP,urn:ioos:station:wmo:lopl1:1,2019-08-08T00:45:00Z,28.8850,-90.0250,10.0,3.1,-9999.0,5.7,'11111222,11111222,11111222' 
LOOP,urn:ioos:station:wmo:lopl1:1,2019-08-08T01:45:00Z,28.8850,-90.0250,10.0,3.1,290.0,5.7,'11111222,11111222,11111222' 
LOOP,urn:ioos:station:wmo:lopl1:1,2019-08-08T02:45:00Z,28.8850,-90.0250,10.0,2.1,290.0,3.6,'11111222,11111222,11111222' 
LOOP,urn:ioos:station:wmo:lopl1:1,2019-08-08T03:50:00Z,28.8850,-90.0250,10.0,2.6,-9999.0,4.1,'11111222,11111222,11111222' 
LOOP,urn:ioos:station:wmo:lopl1:1,2019-08-08T04:50:00Z,28.8850,-90.0250,10.0,3.1,-9999.0,4.1,'11111222,11111222,11111222' 
LOOP,urn:ioos:station:wmo:lopl1:1,2019-08-08T05:50:00Z,28.8850,-90.0250,10.0,5.7,-9999.0,7.2,'11111222,11111222,11111222' 
LOOP,urn:ioos:station:wmo:lopl1:1,2019-08-08T07:05:00Z,28.8850,-90.0250,10.0,6.2,-9999.0,7.7,'11111222,11111222,11111222' 
LOOP,urn:ioos:station:wmo:lopl1:1,2019-08-08T08:05:00Z,28.8850,-90.0250,10.0,6.2,-9999.0,8.2,'11111222,11111222,11111222' 
LOOP,urn:ioos:station:wmo:lopl1:1,2019-08-08T09:05:00Z,28.8850,-90.0250,10.0,6.7,-9999.0,8.8,'11111222,11111222,11111222' 
LOOP,urn:ioos:station:wmo:lopl1:1,2019-08-08T10:05:00Z,28.8850,-90.0250,10.0,5.7,-9999.0,7.7,'11111222,11111222,11111222' 
LOOP,urn:ioos:station:wmo:lopl1:1,2019-08-08T11:05:00Z,28.8850,-90.0250,10.0,4.6,-9999.0,6.7,'11111222,11111222,11111222' 
LOOP,urn:ioos:station:wmo:lopl1:1,2019-08-08T12:05:00Z,28.8850,-90.0250,10.0,4.1,280.0,5.7,'11111222,11111222,11111222' 
LOOP,urn:ioos:station:wmo:lopl1:1,2019-08-08T13:05:00Z,28.8850,-90.0250,10.0,4.6,270.0,8.2,'11111222,11111222,11111222' 
LOOP,urn:ioos:station:wmo:lopl1:1,2019-08-08T14:05:00Z,28.8850,-90.0250,10.0,5.1,-9999.0,6.7,'11111222,11111222,11111222' 
LOOP,urn:ioos:station:wmo:lopl1:1,2019-08-08T15:10:00Z,28.8850,-90.0250,10.0,2.6,290.0,6.2,'11111222,11111222,11111222' 
LOOP,urn:ioos:station:wmo:lopl1:1,2019-08-08T16:10:00Z,28.8850,-90.0250,10.0,3.1,290.0,6.2,'11111222,11111222,11111222' 
LOOP,urn:ioos:station:wmo:lopl1:1,2019-08-08T17:10:00Z,28.8850,-90.0250,10.0,4.1,300.0,5.7,'11111222,11111222,11111222' 
LOOP,urn:ioos:station:wmo:lopl1:1,2019-08-08T18:10:00Z,28.8850,-90.0250,10.0,3.1,290.0,5.1,'11111222,11111222,11111222' 
LOOP,urn:ioos:station:wmo:lopl1:1,2019-08-08T19:10:00Z,28.8850,-90.0250,10.0,2.6,300.0,4.6,'11111222,11111222,11111222' 
LOOP,urn:ioos:station:wmo:lopl1:1,2019-08-08T20:10:00Z,28.8850,-90.0250,10.0,6.7,330.0,9.8,'11111222,11111222,11111222' 
LOOP,urn:ioos:station:wmo:lopl1:1,2019-08-08T21:10:00Z,28.8850,-90.0250,10.0,7.7,-9999.0,8.8,'11111222,11111222,11111222' 
LOOP,urn:ioos:station:wmo:lopl1:1,2019-08-08T22:10:00Z,28.8850,-90.0250,10.0,3.1,300.0,4.6,'11111222,11111222,11111222' 
LOOP,urn:ioos:station:wmo:lopl1:1,2019-08-08T23:10:00Z,28.8850,-90.0250,10.0,5.1,-9999.0,6.2,'11111222,11111222,11111222' 
LOOP,urn:ioos:station:wmo:lopl1:1,2019-08-09T00:10:00Z,28.8850,-90.0250,10.0,3.1,290.0,4.6,'11111222,11111222,11111222' 
LOOP,urn:ioos:station:wmo:lopl1:1,2019-08-09T01:10:00Z,28.8850,-90.0250,10.0,3.1,290.0,4.6,'11111222,11111222,11111222' 
LOOP,urn:ioos:station:wmo:lopl1:1,2019-08-09T02:15:00Z,28.8850,-90.0250,10.0,3.6,290.0,6.7,'11111222,11111222,11111222' 
LOOP,urn:ioos:station:wmo:lopl1:1,2019-08-09T03:15:00Z,28.8850,-90.0250,10.0,2.6,270.0,4.6,'11111222,11111222,11111222' 
LOOP,urn:ioos:station:wmo:lopl1:1,2019-08-09T04:15:00Z,28.8850,-90.0250,10.0,3.1,-9999.0,5.1,'11111222,11111222,11111222' 
LOOP,urn:ioos:station:wmo:lopl1:1,2019-08-09T05:15:00Z,28.8850,-90.0250,10.0,3.6,-9999.0,6.2,'11111222,11111222,11111222' 
LOOP,urn:ioos:station:wmo:lopl1:1,2019-08-09T06:15:00Z,28.8850,-90.0250,10.0,3.6,280.0,5.7,'11111222,11111222,11111222' 